Time,TemperatureF,DewpointF,PressureIn,WindDirection,WindDirectionDegrees,WindSpeedMPH,WindSpeedGustMPH,Humidity,HourlyPrecipIn,Conditions,Clouds,dailyrainin,SoftwareType,DateUTC
2013-09-10 00:01:00,81.8,75.0,30.01,ENE,67,0.0,10.0,82,0.00,,,0.00,Rainwise IP-100,2013-09-10 04:01:00,
2013-09-10 00:06:00,82.0,75.0,30.01,ENE,67,3.3,8.0,81,0.00,,,0.00,Rainwise IP-100,2013-09-10 04:06:00,
2013-09-10 00:11:00,82.0,75.0,30.01,ENE,67,6.8,9.0,80,0.00,,,0.00,Rainwise IP-100,2013-09-10 04:11:00,
2013-09-10 00:16:00,82.1,75.0,30.01,ENE,67,2.8,7.0,80,0.00,,,0.00,Rainwise IP-100,2013-09-10 04:16:00,
2013-09-10 00:21:00,82.2,75.0,30.01,ENE,67,6.1,6.1,79,0.00,,,0.00,Rainwise IP-100,2013-09-10 04:21:00,
2013-09-10 00:26:00,82.3,75.0,30.01,ENE,67,4.2,7.0,79,0.00,,,0.00,Rainwise IP-100,2013-09-10 04:26:00,
2013-09-10 00:31:00,82.2,75.0,30.00,ENE,67,6.1,9.0,79,0.00,,,0.00,Rainwise IP-100,2013-09-10 04:31:00,
2013-09-10 00:37:00,82.1,75.0,30.00,ENE,67,5.6,8.0,80,0.00,,,0.00,Rainwise IP-100,2013-09-10 04:37:00,
2013-09-10 00:42:00,82.0,76.0,30.00,ENE,67,2.6,6.0,82,0.00,,,0.00,Rainwise IP-100,2013-09-10 04:42:00,
2013-09-10 00:47:00,81.7,75.0,30.00,East,90,4.2,5.0,82,0.00,,,0.00,Rainwise IP-100,2013-09-10 04:47:00,
2013-09-10 00:52:00,81.6,76.0,30.00,East,90,3.5,5.0,83,0.00,,,0.00,Rainwise IP-100,2013-09-10 04:52:00,
2013-09-10 00:57:00,81.5,76.0,30.01,ENE,67,5.1,7.0,83,0.00,,,0.00,Rainwise IP-100,2013-09-10 04:57:00,
2013-09-10 01:02:00,81.6,76.0,30.00,ENE,67,4.9,8.0,83,0.00,,,0.00,Rainwise IP-100,2013-09-10 05:02:00,
2013-09-10 01:07:00,81.6,76.0,30.01,ENE,67,4.0,7.0,83,0.00,,,0.00,Rainwise IP-100,2013-09-10 05:07:00,
2013-09-10 01:12:00,81.6,76.0,30.01,ENE,67,4.4,9.0,84,0.00,,,0.00,Rainwise IP-100,2013-09-10 05:12:00,
2013-09-10 01:18:00,81.6,76.0,30.01,East,90,4.4,8.0,84,0.00,,,0.00,Rainwise IP-100,2013-09-10 05:18:00,
2013-09-10 01:23:00,81.7,76.0,30.00,ENE,67,7.9,9.0,84,0.00,,,0.00,Rainwise IP-100,2013-09-10 05:23:00,
2013-09-10 01:28:00,81.7,76.0,30.00,ENE,67,8.4,10.0,84,0.00,,,0.00,Rainwise IP-100,2013-09-10 05:28:00,
2013-09-10 01:33:00,81.7,76.0,30.01,ENE,67,4.2,10.0,84,0.00,,,0.00,Rainwise IP-100,2013-09-10 05:33:00,
2013-09-10 01:38:00,81.6,76.0,30.01,ENE,67,4.9,10.0,83,0.00,,,0.00,Rainwise IP-100,2013-09-10 05:38:00,
2013-09-10 01:43:00,81.6,76.0,30.01,NE,45,6.1,10.0,83,0.00,,,0.00,Rainwise IP-100,2013-09-10 05:43:00,
2013-09-10 01:48:00,81.7,75.0,30.01,NE,45,9.3,11.0,82,0.00,,,0.00,Rainwise IP-100,2013-09-10 05:48:00,
2013-09-10 01:54:00,81.7,75.0,30.01,NNE,22,5.4,9.0,81,0.00,,,0.00,Rainwise IP-100,2013-09-10 05:54:00,
2013-09-10 01:59:00,81.8,74.0,30.01,NE,45,5.6,9.0,80,0.00,,,0.00,Rainwise IP-100,2013-09-10 05:59:00,
2013-09-10 02:04:00,82.0,74.0,30.01,NE,45,7.2,10.0,79,0.00,,,0.00,Rainwise IP-100,2013-09-10 06:04:00,
2013-09-10 02:09:00,82.0,74.0,30.00,NNE,22,8.2,11.0,79,0.00,,,0.00,Rainwise IP-100,2013-09-10 06:09:00,
2013-09-10 02:14:00,82.0,74.0,30.00,ENE,67,5.6,10.0,79,0.00,,,0.00,Rainwise IP-100,2013-09-10 06:14:00,
2013-09-10 02:19:00,82.1,74.0,30.00,ENE,67,6.3,12.0,78,0.00,,,0.00,Rainwise IP-100,2013-09-10 06:19:00,
2013-09-10 02:24:00,82.1,74.0,30.00,East,90,2.6,11.0,78,0.00,,,0.00,Rainwise IP-100,2013-09-10 06:24:00,
2013-09-10 02:29:00,82.2,74.0,30.00,NNE,22,6.8,11.0,78,0.00,,,0.00,Rainwise IP-100,2013-09-10 06:29:00,
2013-09-10 02:35:00,82.2,74.0,30.00,ENE,67,4.2,10.0,78,0.00,,,0.00,Rainwise IP-100,2013-09-10 06:35:00,
2013-09-10 02:40:00,82.2,74.0,30.00,NE,45,9.1,12.0,78,0.00,,,0.00,Rainwise IP-100,2013-09-10 06:40:00,
2013-09-10 02:45:00,82.2,74.0,30.00,ENE,67,8.2,11.0,78,0.00,,,0.00,Rainwise IP-100,2013-09-10 06:45:00,
2013-09-10 02:50:00,82.2,74.0,30.00,ENE,67,7.0,11.0,78,0.00,,,0.00,Rainwise IP-100,2013-09-10 06:50:00,
2013-09-10 02:55:00,82.1,74.0,29.99,East,90,10.0,12.0,78,0.00,,,0.00,Rainwise IP-100,2013-09-10 06:55:00,
2013-09-10 03:00:00,82.1,74.0,29.99,NE,45,6.8,11.0,79,0.00,,,0.00,Rainwise IP-100,2013-09-10 07:00:00,
2013-09-10 03:05:00,82.1,74.0,29.99,NNE,22,8.2,12.0,79,0.00,,,0.00,Rainwise IP-100,2013-09-10 07:05:00,
2013-09-10 03:11:00,82.0,75.0,29.99,ENE,67,7.0,13.0,80,0.00,,,0.00,Rainwise IP-100,2013-09-10 07:11:00,
2013-09-10 03:16:00,82.0,75.0,29.99,NE,45,10.5,14.0,81,0.00,,,0.00,Rainwise IP-100,2013-09-10 07:16:00,
2013-09-10 03:21:00,82.0,75.0,29.98,ENE,67,10.3,15.0,80,0.00,,,0.00,Rainwise IP-100,2013-09-10 07:21:00,
2013-09-10 03:26:00,82.1,74.0,29.99,ENE,67,9.3,10.0,79,0.00,,,0.00,Rainwise IP-100,2013-09-10 07:26:00,
2013-09-10 03:31:00,82.2,75.0,29.99,ENE,67,8.6,11.0,80,0.00,,,0.00,Rainwise IP-100,2013-09-10 07:31:00,
2013-09-10 03:36:00,82.1,75.0,29.99,NNE,22,6.8,10.0,80,0.00,,,0.00,Rainwise IP-100,2013-09-10 07:36:00,
2013-09-10 03:41:00,82.2,75.0,29.98,ENE,67,7.9,12.0,79,0.00,,,0.00,Rainwise IP-100,2013-09-10 07:41:00,
2013-09-10 03:46:00,82.3,75.0,29.98,ENE,67,6.3,10.0,80,0.00,,,0.00,Rainwise IP-100,2013-09-10 07:46:00,
2013-09-10 03:52:00,82.3,75.0,29.98,NNE,22,8.2,10.0,79,0.00,,,0.00,Rainwise IP-100,2013-09-10 07:52:00,
2013-09-10 03:57:00,82.4,75.0,29.98,ENE,67,9.8,17.0,79,0.00,,,0.00,Rainwise IP-100,2013-09-10 07:57:00,
2013-09-10 04:02:00,82.4,75.0,29.98,NE,45,9.8,16.0,79,0.00,,,0.00,Rainwise IP-100,2013-09-10 08:02:00,
2013-09-10 04:07:00,82.3,75.0,29.98,ENE,67,4.2,13.0,79,0.00,,,0.00,Rainwise IP-100,2013-09-10 08:07:00,
2013-09-10 04:12:00,82.2,75.0,29.98,ENE,67,4.2,14.0,79,0.00,,,0.00,Rainwise IP-100,2013-09-10 08:12:00,
2013-09-10 04:17:00,82.2,75.0,29.98,East,90,4.0,10.0,79,0.00,,,0.00,Rainwise IP-100,2013-09-10 08:17:00,
2013-09-10 04:22:00,82.2,75.0,29.98,ENE,67,7.2,13.0,79,0.00,,,0.00,Rainwise IP-100,2013-09-10 08:22:00,
2013-09-10 04:28:00,82.1,74.0,29.99,ENE,67,4.4,14.0,79,0.00,,,0.00,Rainwise IP-100,2013-09-10 08:28:00,
2013-09-10 04:33:00,82.2,75.0,29.98,NNE,22,12.4,12.4,79,0.00,,,0.00,Rainwise IP-100,2013-09-10 08:33:00,
2013-09-10 04:38:00,82.2,75.0,29.98,ENE,67,6.3,11.0,79,0.00,,,0.00,Rainwise IP-100,2013-09-10 08:38:00,
2013-09-10 04:43:00,82.0,74.0,29.98,East,90,5.8,13.0,79,0.00,,,0.00,Rainwise IP-100,2013-09-10 08:43:00,
2013-09-10 04:48:00,82.2,74.0,29.98,ENE,67,8.6,12.0,77,0.00,,,0.00,Rainwise IP-100,2013-09-10 08:48:00,
2013-09-10 04:53:00,82.3,74.0,29.98,ENE,67,4.7,11.0,77,0.00,,,0.00,Rainwise IP-100,2013-09-10 08:53:00,
2013-09-10 04:58:00,82.2,74.0,29.98,ENE,67,4.7,13.0,77,0.00,,,0.00,Rainwise IP-100,2013-09-10 08:58:00,
2013-09-10 05:03:00,82.3,74.0,29.98,ENE,67,6.8,12.0,77,0.00,,,0.00,Rainwise IP-100,2013-09-10 09:03:00,
2013-09-10 05:09:00,82.3,75.0,29.98,ENE,67,7.5,15.0,79,0.00,,,0.00,Rainwise IP-100,2013-09-10 09:09:00,
2013-09-10 05:14:00,82.2,75.0,29.98,NE,45,7.9,13.0,79,0.00,,,0.00,Rainwise IP-100,2013-09-10 09:14:00,
2013-09-10 05:19:00,82.2,75.0,29.99,ENE,67,7.7,14.0,79,0.00,,,0.00,Rainwise IP-100,2013-09-10 09:19:00,
2013-09-10 05:24:00,82.2,74.0,29.99,ENE,67,8.9,13.0,78,0.00,,,0.00,Rainwise IP-100,2013-09-10 09:24:00,
2013-09-10 05:29:00,82.3,74.0,29.99,NE,45,9.6,15.0,77,0.00,,,0.00,Rainwise IP-100,2013-09-10 09:29:00,
2013-09-10 05:34:00,82.4,74.0,29.98,NNE,22,15.9,16.0,77,0.00,,,0.00,Rainwise IP-100,2013-09-10 09:34:00,
2013-09-10 05:39:00,82.4,74.0,29.99,ENE,67,11.2,19.0,77,0.00,,,0.00,Rainwise IP-100,2013-09-10 09:39:00,
2013-09-10 05:45:00,82.5,74.0,29.99,ENE,67,9.8,15.0,76,0.00,,,0.00,Rainwise IP-100,2013-09-10 09:45:00,
2013-09-10 05:50:00,82.5,74.0,29.99,ENE,67,6.3,14.0,77,0.00,,,0.00,Rainwise IP-100,2013-09-10 09:50:00,
2013-09-10 05:55:00,82.4,74.0,30.00,East,90,5.8,14.0,77,0.00,,,0.00,Rainwise IP-100,2013-09-10 09:55:00,
2013-09-10 06:00:00,82.2,74.0,29.99,ENE,67,9.8,12.0,78,0.00,,,0.00,Rainwise IP-100,2013-09-10 10:00:00,
2013-09-10 06:05:00,82.2,74.0,29.99,ENE,67,6.3,11.0,78,0.00,,,0.00,Rainwise IP-100,2013-09-10 10:05:00,
2013-09-10 06:10:00,82.2,74.0,30.00,ENE,67,9.1,10.0,78,0.00,,,0.00,Rainwise IP-100,2013-09-10 10:10:00,
2013-09-10 06:15:00,82.2,74.0,30.00,East,90,5.6,11.0,78,0.00,,,0.00,Rainwise IP-100,2013-09-10 10:15:00,
2013-09-10 06:20:00,82.1,74.0,30.00,ENE,67,6.1,10.0,78,0.00,,,0.00,Rainwise IP-100,2013-09-10 10:20:00,
2013-09-10 06:26:00,82.1,74.0,30.00,ENE,67,6.3,11.0,78,0.00,,,0.00,Rainwise IP-100,2013-09-10 10:26:00,
2013-09-10 06:31:00,82.1,74.0,30.01,ENE,67,5.6,12.0,78,0.00,,,0.00,Rainwise IP-100,2013-09-10 10:31:00,
2013-09-10 06:36:00,82.1,74.0,30.00,East,90,4.9,9.0,78,0.00,,,0.00,Rainwise IP-100,2013-09-10 10:36:00,
2013-09-10 06:41:00,82.1,74.0,30.01,NNE,22,5.1,11.0,78,0.00,,,0.00,Rainwise IP-100,2013-09-10 10:41:00,
2013-09-10 06:46:00,82.2,74.0,30.01,ENE,67,2.8,11.0,78,0.00,,,0.00,Rainwise IP-100,2013-09-10 10:46:00,
2013-09-10 06:51:00,82.2,74.0,30.01,East,90,4.2,12.0,78,0.00,,,0.00,Rainwise IP-100,2013-09-10 10:51:00,
2013-09-10 06:56:00,82.3,75.0,30.01,ENE,67,4.2,10.0,79,0.00,,,0.00,Rainwise IP-100,2013-09-10 10:56:00,
2013-09-10 07:02:00,82.2,75.0,30.01,East,90,5.1,10.0,79,0.00,,,0.00,Rainwise IP-100,2013-09-10 11:02:00,
2013-09-10 07:07:00,82.2,75.0,30.01,NE,45,5.4,11.0,79,0.00,,,0.00,Rainwise IP-100,2013-09-10 11:07:00,
2013-09-10 07:12:00,82.4,75.0,30.01,SSE,157,3.7,8.0,79,0.00,,,0.00,Rainwise IP-100,2013-09-10 11:12:00,
2013-09-10 07:17:00,82.3,75.0,30.02,ENE,67,10.3,12.0,80,0.00,,,0.00,Rainwise IP-100,2013-09-10 11:17:00,
2013-09-10 07:22:00,81.9,75.0,30.02,ENE,67,12.6,19.0,80,0.00,,,0.00,Rainwise IP-100,2013-09-10 11:22:00,
2013-09-10 07:27:00,81.2,74.0,30.02,NE,45,15.2,16.0,79,0.00,,,0.00,Rainwise IP-100,2013-09-10 11:27:00,
2013-09-10 07:32:00,80.6,73.0,30.01,NNW,337,7.9,21.0,79,0.00,,,0.00,Rainwise IP-100,2013-09-10 11:32:00,
2013-09-10 07:37:00,79.8,72.0,30.02,North,360,11.9,15.0,79,0.00,,,0.00,Rainwise IP-100,2013-09-10 11:37:00,
2013-09-10 07:43:00,79.4,72.0,30.02,NNE,22,3.3,12.0,80,0.00,,,0.00,Rainwise IP-100,2013-09-10 11:43:00,
2013-09-10 07:48:00,79.3,73.0,30.02,NNE,22,2.8,7.0,81,0.00,,,0.00,Rainwise IP-100,2013-09-10 11:48:00,
2013-09-10 07:53:00,79.7,73.0,30.02,NE,45,5.8,7.0,81,0.00,,,0.00,Rainwise IP-100,2013-09-10 11:53:00,
2013-09-10 07:58:00,80.5,74.0,30.02,ENE,67,2.8,9.0,82,0.00,,,0.00,Rainwise IP-100,2013-09-10 11:58:00,
2013-09-10 08:03:00,81.2,75.0,30.03,ENE,67,4.2,7.0,82,0.00,,,0.00,Rainwise IP-100,2013-09-10 12:03:00,
2013-09-10 08:08:00,81.5,75.0,30.03,ESE,112,3.7,11.0,82,0.00,,,0.00,Rainwise IP-100,2013-09-10 12:08:00,
2013-09-10 08:13:00,82.0,75.0,30.04,East,90,4.2,11.0,81,0.00,,,0.00,Rainwise IP-100,2013-09-10 12:13:00,
2013-09-10 08:19:00,82.6,76.0,30.03,ENE,67,6.3,8.0,80,0.00,,,0.00,Rainwise IP-100,2013-09-10 12:19:00,
2013-09-10 08:24:00,83.0,76.0,30.04,ENE,67,6.5,12.0,79,0.00,,,0.00,Rainwise IP-100,2013-09-10 12:24:00,
2013-09-10 08:29:00,83.2,75.0,30.04,East,90,12.1,12.1,77,0.00,,,0.00,Rainwise IP-100,2013-09-10 12:29:00,
2013-09-10 08:34:00,83.4,74.0,30.05,ENE,67,6.3,12.0,75,0.00,,,0.00,Rainwise IP-100,2013-09-10 12:34:00,
2013-09-10 08:39:00,83.6,74.0,30.04,ENE,67,4.7,7.0,75,0.00,,,0.00,Rainwise IP-100,2013-09-10 12:39:00,
2013-09-10 08:44:00,83.9,76.0,30.05,ENE,67,8.6,10.0,76,0.00,,,0.00,Rainwise IP-100,2013-09-10 12:44:00,
2013-09-10 08:49:00,84.1,76.0,30.04,East,90,3.3,12.0,76,0.00,,,0.00,Rainwise IP-100,2013-09-10 12:49:00,
2013-09-10 08:54:00,84.1,75.0,30.04,East,90,6.3,10.0,75,0.00,,,0.00,Rainwise IP-100,2013-09-10 12:54:00,
2013-09-10 09:00:00,84.2,75.0,30.05,ENE,67,6.8,12.0,74,0.00,,,0.00,Rainwise IP-100,2013-09-10 13:00:00,
2013-09-10 09:05:00,84.4,74.0,30.05,ENE,67,5.8,10.0,73,0.00,,,0.00,Rainwise IP-100,2013-09-10 13:05:00,
2013-09-10 09:10:00,84.7,75.0,30.05,NE,45,6.1,11.0,73,0.00,,,0.00,Rainwise IP-100,2013-09-10 13:10:00,
2013-09-10 09:15:00,84.7,75.0,30.05,ENE,67,6.5,11.0,73,0.00,,,0.00,Rainwise IP-100,2013-09-10 13:15:00,
2013-09-10 09:20:00,84.7,75.0,30.05,ENE,67,4.7,11.0,73,0.00,,,0.00,Rainwise IP-100,2013-09-10 13:20:00,
2013-09-10 09:25:00,84.9,76.0,30.06,NNE,22,6.1,10.0,74,0.00,,,0.00,Rainwise IP-100,2013-09-10 13:25:00,
2013-09-10 09:30:00,85.0,76.0,30.05,ENE,67,4.9,11.0,74,0.00,,,0.00,Rainwise IP-100,2013-09-10 13:30:00,
2013-09-10 09:36:00,85.0,76.0,30.05,ENE,67,6.3,8.0,74,0.00,,,0.00,Rainwise IP-100,2013-09-10 13:36:00,
2013-09-10 09:41:00,85.2,75.0,30.05,ENE,67,7.0,11.0,73,0.00,,,0.00,Rainwise IP-100,2013-09-10 13:41:00,
2013-09-10 09:46:00,85.2,75.0,30.05,NNE,22,5.6,11.0,73,0.00,,,0.00,Rainwise IP-100,2013-09-10 13:46:00,
2013-09-10 09:51:00,84.7,75.0,30.05,ENE,67,4.9,12.0,73,0.00,,,0.00,Rainwise IP-100,2013-09-10 13:51:00,
2013-09-10 09:56:00,84.3,75.0,30.06,ENE,67,7.2,8.0,74,0.00,,,0.00,Rainwise IP-100,2013-09-10 13:56:00,
2013-09-10 10:01:00,84.0,75.0,30.06,ENE,67,7.2,10.0,75,0.00,,,0.00,Rainwise IP-100,2013-09-10 14:01:00,
2013-09-10 10:06:00,83.8,75.0,30.05,East,90,4.2,14.0,76,0.00,,,0.00,Rainwise IP-100,2013-09-10 14:06:00,
2013-09-10 10:11:00,84.0,76.0,30.06,ENE,67,6.1,9.0,76,0.00,,,0.00,Rainwise IP-100,2013-09-10 14:11:00,
2013-09-10 10:17:00,84.3,76.0,30.06,ENE,67,5.6,10.0,76,0.00,,,0.00,Rainwise IP-100,2013-09-10 14:17:00,
2013-09-10 10:22:00,84.7,76.0,30.06,ENE,67,9.1,9.1,75,0.00,,,0.00,Rainwise IP-100,2013-09-10 14:22:00,
2013-09-10 10:27:00,84.9,75.0,30.06,East,90,5.8,14.0,73,0.00,,,0.00,Rainwise IP-100,2013-09-10 14:27:00,
2013-09-10 10:32:00,85.3,74.0,30.07,ENE,67,8.2,14.0,70,0.00,,,0.00,Rainwise IP-100,2013-09-10 14:32:00,
2013-09-10 10:37:00,86.0,75.0,30.06,ENE,67,4.2,11.0,70,0.00,,,0.00,Rainwise IP-100,2013-09-10 14:37:00,
2013-09-10 10:42:00,86.1,74.0,30.06,ENE,67,7.0,10.0,69,0.00,,,0.00,Rainwise IP-100,2013-09-10 14:42:00,
2013-09-10 10:47:00,86.1,74.0,30.07,NE,45,11.0,11.0,69,0.00,,,0.00,Rainwise IP-100,2013-09-10 14:47:00,
2013-09-10 10:53:00,86.3,74.0,30.07,ENE,67,8.2,14.0,68,0.00,,,0.00,Rainwise IP-100,2013-09-10 14:53:00,
2013-09-10 10:58:00,86.3,74.0,30.07,East,90,7.5,11.0,68,0.00,,,0.00,Rainwise IP-100,2013-09-10 14:58:00,
2013-09-10 11:03:00,86.3,74.0,30.07,ENE,67,6.3,11.0,68,0.00,,,0.00,Rainwise IP-100,2013-09-10 15:03:00,
2013-09-10 11:08:00,86.1,74.0,30.08,ENE,67,5.8,11.0,68,0.00,,,0.00,Rainwise IP-100,2013-09-10 15:08:00,
2013-09-10 11:13:00,86.3,74.0,30.07,ENE,67,6.1,13.0,69,0.00,,,0.00,Rainwise IP-100,2013-09-10 15:13:00,
2013-09-10 11:18:00,86.4,74.0,30.07,ENE,67,6.8,13.0,68,0.00,,,0.00,Rainwise IP-100,2013-09-10 15:18:00,
2013-09-10 11:23:00,86.5,74.0,30.07,ENE,67,7.2,13.0,68,0.00,,,0.00,Rainwise IP-100,2013-09-10 15:23:00,
2013-09-10 11:28:00,86.7,74.0,30.07,ENE,67,2.6,12.0,68,0.00,,,0.00,Rainwise IP-100,2013-09-10 15:28:00,
2013-09-10 11:34:00,86.5,74.0,30.06,NE,45,8.4,20.0,67,0.00,,,0.00,Rainwise IP-100,2013-09-10 15:34:00,
2013-09-10 11:39:00,86.1,74.0,30.07,NNE,22,12.4,21.0,68,0.00,,,0.00,Rainwise IP-100,2013-09-10 15:39:00,
2013-09-10 11:44:00,85.3,75.0,30.06,North,360,8.6,17.0,72,0.00,,,0.00,Rainwise IP-100,2013-09-10 15:44:00,
2013-09-10 11:49:00,84.4,75.0,30.06,North,360,7.9,12.0,75,0.00,,,0.00,Rainwise IP-100,2013-09-10 15:49:00,
2013-09-10 11:54:00,84.5,75.0,30.07,NNE,22,4.0,12.0,73,0.00,,,0.00,Rainwise IP-100,2013-09-10 15:54:00,
2013-09-10 11:59:00,85.1,74.0,30.06,NE,45,8.6,8.6,71,0.00,,,0.00,Rainwise IP-100,2013-09-10 15:59:00,
2013-09-10 12:04:00,85.7,74.0,30.06,NE,45,8.4,11.0,69,0.00,,,0.00,Rainwise IP-100,2013-09-10 16:04:00,
2013-09-10 12:09:00,86.0,74.0,30.06,ENE,67,8.9,14.0,68,0.00,,,0.00,Rainwise IP-100,2013-09-10 16:09:00,
2013-09-10 12:14:00,86.2,73.0,30.06,NE,45,8.4,13.0,67,0.00,,,0.00,Rainwise IP-100,2013-09-10 16:14:00,
2013-09-10 12:19:00,86.3,73.0,30.06,East,90,10.0,13.0,67,0.00,,,0.00,Rainwise IP-100,2013-09-10 16:19:00,
2013-09-10 12:24:00,86.3,74.0,30.06,NE,45,12.8,14.0,68,0.00,,,0.00,Rainwise IP-100,2013-09-10 16:24:00,
2013-09-10 12:29:00,86.6,74.0,30.06,ENE,67,9.3,15.0,68,0.00,,,0.00,Rainwise IP-100,2013-09-10 16:29:00,
2013-09-10 12:34:00,86.8,74.0,30.06,NE,45,12.4,17.0,68,0.00,,,0.00,Rainwise IP-100,2013-09-10 16:34:00,
2013-09-10 12:39:00,86.0,73.0,30.06,ENE,67,12.4,19.0,67,0.00,,,0.00,Rainwise IP-100,2013-09-10 16:39:00,
2013-09-10 12:45:00,85.4,72.0,30.06,ENE,67,12.8,20.0,66,0.00,,,0.00,Rainwise IP-100,2013-09-10 16:45:00,
2013-09-10 12:50:00,85.2,72.0,30.06,NE,45,14.7,18.0,66,0.00,,,0.00,Rainwise IP-100,2013-09-10 16:50:00,
2013-09-10 12:55:00,84.8,72.0,30.07,East,90,7.2,18.0,66,0.00,,,0.00,Rainwise IP-100,2013-09-10 16:55:00,
2013-09-10 13:00:00,83.6,72.0,30.07,ESE,112,6.5,14.0,68,0.00,,,0.00,Rainwise IP-100,2013-09-10 17:00:00,
2013-09-10 13:05:00,82.3,72.0,30.07,ENE,67,11.2,12.0,73,0.00,,,0.00,Rainwise IP-100,2013-09-10 17:05:00,
2013-09-10 13:10:00,82.0,72.0,30.06,ESE,112,5.6,12.0,74,0.00,,,0.00,Rainwise IP-100,2013-09-10 17:10:00,
2013-09-10 13:15:00,81.9,72.0,30.06,ENE,67,2.6,13.0,73,0.00,,,0.00,Rainwise IP-100,2013-09-10 17:15:00,
2013-09-10 13:20:00,82.1,72.0,30.06,ESE,112,3.0,8.0,74,0.00,,,0.01,Rainwise IP-100,2013-09-10 17:20:00,
2013-09-10 13:26:00,81.9,73.0,30.06,SE,135,3.3,8.0,76,0.06,,,0.01,Rainwise IP-100,2013-09-10 17:26:00,
2013-09-10 13:31:00,82.0,73.0,30.05,ENE,67,2.3,8.0,75,0.06,,,0.01,Rainwise IP-100,2013-09-10 17:31:00,
2013-09-10 13:36:00,82.8,73.0,30.06,ESE,112,4.9,6.0,74,0.00,,,0.01,Rainwise IP-100,2013-09-10 17:36:00,
2013-09-10 13:41:00,83.6,74.0,30.06,ENE,67,2.1,8.0,73,0.00,,,0.01,Rainwise IP-100,2013-09-10 17:41:00,
2013-09-10 13:46:00,84.1,74.0,30.05,NE,45,8.6,8.6,73,0.00,,,0.01,Rainwise IP-100,2013-09-10 17:46:00,
2013-09-10 13:51:00,84.5,75.0,30.05,ENE,67,2.3,9.0,73,0.00,,,0.01,Rainwise IP-100,2013-09-10 17:51:00,
2013-09-10 13:56:00,84.4,74.0,30.05,ENE,67,3.3,6.0,73,0.00,,,0.01,Rainwise IP-100,2013-09-10 17:56:00,
2013-09-10 14:02:00,84.2,74.0,30.04,ENE,67,7.2,10.0,73,0.00,,,0.01,Rainwise IP-100,2013-09-10 18:02:00,
2013-09-10 14:07:00,84.3,75.0,30.04,ENE,67,8.4,9.0,74,0.00,,,0.01,Rainwise IP-100,2013-09-10 18:07:00,
2013-09-10 14:12:00,84.4,75.0,30.05,NE,45,5.4,8.0,74,0.00,,,0.01,Rainwise IP-100,2013-09-10 18:12:00,
2013-09-10 14:17:00,84.9,76.0,30.05,ENE,67,7.7,9.0,74,0.00,,,0.01,Rainwise IP-100,2013-09-10 18:17:00,
2013-09-10 14:22:00,85.0,76.0,30.05,NE,45,8.4,10.0,74,0.00,,,0.01,Rainwise IP-100,2013-09-10 18:22:00,
2013-09-10 14:27:00,84.9,76.0,30.04,ENE,67,7.7,11.0,74,0.00,,,0.01,Rainwise IP-100,2013-09-10 18:27:00,
2013-09-10 14:32:00,85.1,76.0,30.04,ENE,67,7.7,10.0,75,0.00,,,0.01,Rainwise IP-100,2013-09-10 18:32:00,
2013-09-10 14:37:00,85.2,76.0,30.04,NNE,22,6.1,11.0,75,0.00,,,0.01,Rainwise IP-100,2013-09-10 18:37:00,
2013-09-10 14:43:00,85.2,76.0,30.03,NE,45,7.5,12.0,75,0.00,,,0.01,Rainwise IP-100,2013-09-10 18:43:00,
2013-09-10 14:48:00,85.1,76.0,30.04,NNE,22,4.0,13.0,74,0.00,,,0.01,Rainwise IP-100,2013-09-10 18:48:00,
2013-09-10 14:53:00,85.4,75.0,30.03,ENE,67,6.1,11.0,72,0.00,,,0.01,Rainwise IP-100,2013-09-10 18:53:00,
2013-09-10 14:58:00,85.9,75.0,30.02,ENE,67,11.4,15.0,70,0.00,,,0.01,Rainwise IP-100,2013-09-10 18:58:00,
2013-09-10 15:03:00,86.1,74.0,30.02,ENE,67,7.2,13.0,69,0.00,,,0.01,Rainwise IP-100,2013-09-10 19:03:00,
2013-09-10 15:08:00,86.3,75.0,30.02,ENE,67,7.9,14.0,70,0.00,,,0.01,Rainwise IP-100,2013-09-10 19:08:00,
2013-09-10 15:13:00,86.6,75.0,30.02,ENE,67,10.0,14.0,70,0.00,,,0.01,Rainwise IP-100,2013-09-10 19:13:00,
2013-09-10 15:19:00,85.9,75.0,30.02,ENE,67,9.6,21.0,70,0.00,,,0.01,Rainwise IP-100,2013-09-10 19:19:00,
2013-09-10 15:24:00,83.4,74.0,30.03,ENE,67,16.8,23.0,73,0.00,,,0.01,Rainwise IP-100,2013-09-10 19:24:00,
2013-09-10 15:29:00,80.6,72.0,30.03,East,90,7.0,26.0,75,0.00,,,0.01,Rainwise IP-100,2013-09-10 19:29:00,
2013-09-10 15:34:00,79.0,71.0,30.05,East,90,11.0,20.0,76,0.00,,,0.01,Rainwise IP-100,2013-09-10 19:34:00,
2013-09-10 15:39:00,77.7,71.0,30.04,SE,135,9.6,21.0,81,0.00,,,0.01,Rainwise IP-100,2013-09-10 19:39:00,
2013-09-10 15:44:00,76.7,72.0,30.05,SE,135,3.7,16.0,86,0.00,,,0.01,Rainwise IP-100,2013-09-10 19:44:00,
2013-09-10 15:49:00,76.4,72.0,30.03,SSE,157,6.8,12.0,88,0.06,,,0.02,Rainwise IP-100,2013-09-10 19:49:00,
2013-09-10 15:54:00,76.4,72.0,30.04,ESE,112,3.3,15.0,88,0.18,,,0.04,Rainwise IP-100,2013-09-10 19:54:00,
2013-09-10 16:00:00,77.4,74.0,30.02,ENE,67,6.8,14.0,89,0.12,,,0.05,Rainwise IP-100,2013-09-10 20:00:00,
2013-09-10 16:05:00,77.9,74.0,30.02,NE,45,3.3,9.0,89,0.06,,,0.05,Rainwise IP-100,2013-09-10 20:05:00,
2013-09-10 16:10:00,78.4,74.0,30.03,ESE,112,4.4,9.0,88,0.00,,,0.05,Rainwise IP-100,2013-09-10 20:10:00,
2013-09-10 16:15:00,78.8,74.0,30.03,ESE,112,4.2,9.0,88,0.00,,,0.05,Rainwise IP-100,2013-09-10 20:15:00,
2013-09-10 16:20:00,78.9,74.0,30.02,East,90,5.4,10.0,87,0.00,,,0.05,Rainwise IP-100,2013-09-10 20:20:00,
2013-09-10 16:25:00,79.2,75.0,30.02,SSE,157,4.4,10.0,87,0.00,,,0.05,Rainwise IP-100,2013-09-10 20:25:00,
2013-09-10 16:30:00,79.7,75.0,30.03,ESE,112,2.1,11.0,87,0.00,,,0.05,Rainwise IP-100,2013-09-10 20:30:00,
2013-09-10 16:36:00,79.6,75.0,30.02,SSE,157,2.3,12.0,86,0.00,,,0.05,Rainwise IP-100,2013-09-10 20:36:00,
2013-09-10 16:41:00,79.5,74.0,30.03,East,90,12.1,12.1,84,0.00,,,0.05,Rainwise IP-100,2013-09-10 20:41:00,
2013-09-10 16:46:00,80.0,74.0,30.02,ENE,67,5.1,14.0,84,0.00,,,0.05,Rainwise IP-100,2013-09-10 20:46:00,
2013-09-10 16:51:00,80.3,74.0,30.02,East,90,17.7,17.7,83,0.00,,,0.05,Rainwise IP-100,2013-09-10 20:51:00,
2013-09-10 16:56:00,80.6,74.0,30.02,ENE,67,7.7,17.0,81,0.00,,,0.05,Rainwise IP-100,2013-09-10 20:56:00,
2013-09-10 17:01:00,80.7,74.0,30.02,NE,45,10.3,18.0,81,0.00,,,0.05,Rainwise IP-100,2013-09-10 21:01:00,
2013-09-10 17:06:00,80.6,73.0,30.03,ENE,67,12.1,18.0,80,0.00,,,0.05,Rainwise IP-100,2013-09-10 21:06:00,
2013-09-10 17:11:00,80.9,74.0,30.02,NNE,22,8.9,17.0,80,0.00,,,0.05,Rainwise IP-100,2013-09-10 21:11:00,
2013-09-10 17:17:00,81.3,74.0,30.02,ENE,67,8.2,12.0,80,0.00,,,0.05,Rainwise IP-100,2013-09-10 21:17:00,
2013-09-10 17:22:00,81.4,74.0,30.02,NE,45,10.5,13.0,79,0.00,,,0.05,Rainwise IP-100,2013-09-10 21:22:00,
2013-09-10 17:27:00,81.6,74.0,30.02,ENE,67,8.9,15.0,80,0.00,,,0.05,Rainwise IP-100,2013-09-10 21:27:00,
2013-09-10 17:32:00,81.4,75.0,30.01,ENE,67,7.5,15.0,82,0.06,,,0.06,Rainwise IP-100,2013-09-10 21:32:00,
2013-09-10 17:37:00,81.1,76.0,30.01,ENE,67,8.6,12.0,84,0.06,,,0.06,Rainwise IP-100,2013-09-10 21:37:00,
2013-09-10 17:42:00,80.9,76.0,30.02,ENE,67,9.1,14.0,86,0.00,,,0.06,Rainwise IP-100,2013-09-10 21:42:00,
2013-09-10 17:47:00,80.8,76.0,30.02,East,90,8.2,13.0,87,0.00,,,0.06,Rainwise IP-100,2013-09-10 21:47:00,
2013-09-10 17:53:00,81.0,76.0,30.03,ENE,67,4.7,11.0,87,0.00,,,0.06,Rainwise IP-100,2013-09-10 21:53:00,
2013-09-10 17:58:00,81.1,76.0,30.03,ENE,67,9.3,9.3,86,0.00,,,0.06,Rainwise IP-100,2013-09-10 21:58:00,
2013-09-10 18:03:00,81.2,76.0,30.02,ENE,67,4.9,11.0,86,0.00,,,0.06,Rainwise IP-100,2013-09-10 22:03:00,
2013-09-10 18:08:00,81.2,76.0,30.02,ENE,67,5.8,12.0,86,0.00,,,0.06,Rainwise IP-100,2013-09-10 22:08:00,
2013-09-10 18:13:00,81.3,76.0,30.02,NE,45,11.0,14.0,85,0.00,,,0.06,Rainwise IP-100,2013-09-10 22:13:00,
2013-09-10 18:18:00,81.5,76.0,30.03,NE,45,10.0,14.0,85,0.00,,,0.06,Rainwise IP-100,2013-09-10 22:18:00,
2013-09-10 18:23:00,81.7,76.0,30.03,ENE,67,12.4,15.0,84,0.00,,,0.06,Rainwise IP-100,2013-09-10 22:23:00,
2013-09-10 18:28:00,82.0,76.0,30.03,East,90,8.4,15.0,82,0.00,,,0.06,Rainwise IP-100,2013-09-10 22:28:00,
2013-09-10 18:34:00,82.2,76.0,30.03,ESE,112,6.8,14.0,81,0.00,,,0.06,Rainwise IP-100,2013-09-10 22:34:00,
2013-09-10 18:39:00,82.4,76.0,30.04,ENE,67,7.9,15.0,80,0.00,,,0.06,Rainwise IP-100,2013-09-10 22:39:00,
2013-09-10 18:44:00,82.5,76.0,30.03,East,90,8.2,12.0,80,0.00,,,0.06,Rainwise IP-100,2013-09-10 22:44:00,
2013-09-10 18:49:00,82.6,76.0,30.04,ENE,67,4.2,17.0,80,0.00,,,0.06,Rainwise IP-100,2013-09-10 22:49:00,
2013-09-10 18:54:00,82.7,76.0,30.04,North,360,5.6,9.0,81,0.00,,,0.06,Rainwise IP-100,2013-09-10 22:54:00,
2013-09-10 18:59:00,82.7,76.0,30.04,East,90,7.5,21.0,80,0.00,,,0.06,Rainwise IP-100,2013-09-10 22:59:00,
2013-09-10 19:04:00,82.6,75.0,30.04,ENE,67,11.4,17.0,79,0.00,,,0.06,Rainwise IP-100,2013-09-10 23:04:00,
2013-09-10 19:10:00,82.8,75.0,30.04,ENE,67,6.3,15.0,79,0.00,,,0.06,Rainwise IP-100,2013-09-10 23:10:00,
2013-09-10 19:15:00,82.7,75.0,30.04,ENE,67,9.1,18.0,79,0.00,,,0.06,Rainwise IP-100,2013-09-10 23:15:00,
2013-09-10 19:20:00,82.6,75.0,30.04,ENE,67,7.7,12.0,79,0.00,,,0.06,Rainwise IP-100,2013-09-10 23:20:00,
2013-09-10 19:25:00,82.7,75.0,30.04,ENE,67,9.3,14.0,79,0.00,,,0.06,Rainwise IP-100,2013-09-10 23:25:00,
2013-09-10 19:30:00,82.6,75.0,30.04,East,90,11.2,16.0,79,0.00,,,0.06,Rainwise IP-100,2013-09-10 23:30:00,
2013-09-10 19:35:00,82.5,75.0,30.03,ENE,67,8.2,15.0,79,0.00,,,0.06,Rainwise IP-100,2013-09-10 23:35:00,
2013-09-10 19:40:00,82.6,76.0,30.03,ENE,67,8.9,13.0,80,0.00,,,0.06,Rainwise IP-100,2013-09-10 23:40:00,
2013-09-10 19:45:00,82.6,76.0,30.03,NNE,22,9.1,18.0,80,0.00,,,0.06,Rainwise IP-100,2013-09-10 23:45:00,
2013-09-10 19:51:00,81.9,76.0,30.03,East,90,10.3,15.0,83,0.06,,,0.07,Rainwise IP-100,2013-09-10 23:51:00,
2013-09-10 19:56:00,81.2,76.0,30.03,NE,45,5.8,15.0,84,0.06,,,0.07,Rainwise IP-100,2013-09-10 23:56:00,
2013-09-10 20:01:00,81.3,76.0,30.04,ENE,67,10.3,13.0,84,0.00,,,0.07,Rainwise IP-100,2013-09-11 00:01:00,
2013-09-10 20:06:00,81.6,76.0,30.04,NE,45,8.6,16.0,83,0.00,,,0.07,Rainwise IP-100,2013-09-11 00:06:00,
2013-09-10 20:11:00,81.6,75.0,30.05,NE,45,15.6,21.0,82,0.00,,,0.07,Rainwise IP-100,2013-09-11 00:11:00,
2013-09-10 20:16:00,81.4,75.0,30.04,NE,45,8.9,18.0,82,0.00,,,0.07,Rainwise IP-100,2013-09-11 00:16:00,
2013-09-10 20:21:00,81.3,74.0,30.05,ENE,67,8.6,15.0,81,0.00,,,0.07,Rainwise IP-100,2013-09-11 00:21:00,
2013-09-10 20:27:00,81.4,74.0,30.05,NE,45,9.3,15.0,81,0.00,,,0.07,Rainwise IP-100,2013-09-11 00:27:00,
2013-09-10 20:32:00,81.7,75.0,30.05,ENE,67,2.6,16.0,82,0.00,,,0.07,Rainwise IP-100,2013-09-11 00:32:00,
2013-09-10 20:37:00,81.7,75.0,30.04,ENE,67,5.6,10.0,82,0.00,,,0.07,Rainwise IP-100,2013-09-11 00:37:00,
2013-09-10 20:42:00,81.8,75.0,30.04,ENE,67,4.7,11.0,82,0.00,,,0.07,Rainwise IP-100,2013-09-11 00:42:00,
2013-09-10 20:47:00,82.1,75.0,30.05,ENE,67,9.8,12.0,81,0.00,,,0.07,Rainwise IP-100,2013-09-11 00:47:00,
2013-09-10 20:52:00,82.3,76.0,30.05,ENE,67,5.4,13.0,81,0.00,,,0.07,Rainwise IP-100,2013-09-11 00:52:00,
2013-09-10 20:57:00,82.4,76.0,30.05,East,90,9.3,15.0,81,0.00,,,0.07,Rainwise IP-100,2013-09-11 00:57:00,
2013-09-10 21:02:00,82.4,76.0,30.05,NE,45,3.0,14.0,81,0.00,,,0.07,Rainwise IP-100,2013-09-11 01:02:00,
2013-09-10 21:08:00,82.3,76.0,30.05,ENE,67,4.4,14.0,81,0.00,,,0.07,Rainwise IP-100,2013-09-11 01:08:00,
2013-09-10 21:13:00,82.3,75.0,30.06,East,90,7.9,12.0,80,0.00,,,0.07,Rainwise IP-100,2013-09-11 01:13:00,
2013-09-10 21:18:00,82.4,76.0,30.06,ENE,67,9.1,15.0,81,0.00,,,0.07,Rainwise IP-100,2013-09-11 01:18:00,
2013-09-10 21:23:00,82.4,76.0,30.06,ESE,112,6.1,12.0,81,0.00,,,0.07,Rainwise IP-100,2013-09-11 01:23:00,
2013-09-10 21:28:00,82.4,76.0,30.06,ENE,67,6.8,13.0,81,0.00,,,0.07,Rainwise IP-100,2013-09-11 01:28:00,
2013-09-10 21:33:00,82.5,76.0,30.07,ENE,67,0.0,15.0,81,0.00,,,0.07,Rainwise IP-100,2013-09-11 01:33:00,
2013-09-10 21:38:00,82.4,76.0,30.06,ENE,67,8.9,14.0,80,0.00,,,0.07,Rainwise IP-100,2013-09-11 01:38:00,
2013-09-10 21:44:00,82.4,76.0,30.06,NE,45,7.9,15.0,80,0.00,,,0.07,Rainwise IP-100,2013-09-11 01:44:00,
2013-09-10 21:49:00,82.4,76.0,30.06,ENE,67,8.4,17.0,81,0.00,,,0.07,Rainwise IP-100,2013-09-11 01:49:00,
2013-09-10 21:54:00,82.3,76.0,30.06,ENE,67,14.0,16.0,81,0.00,,,0.07,Rainwise IP-100,2013-09-11 01:54:00,
2013-09-10 21:59:00,82.4,76.0,30.06,ENE,67,7.7,18.0,81,0.00,,,0.07,Rainwise IP-100,2013-09-11 01:59:00,
2013-09-10 22:04:00,82.4,76.0,30.06,ESE,112,9.8,16.0,81,0.00,,,0.07,Rainwise IP-100,2013-09-11 02:04:00,
2013-09-10 22:09:00,82.4,76.0,30.06,ENE,67,7.9,15.0,81,0.00,,,0.07,Rainwise IP-100,2013-09-11 02:09:00,
2013-09-10 22:14:00,82.5,76.0,30.06,ENE,67,11.7,17.0,81,0.00,,,0.07,Rainwise IP-100,2013-09-11 02:14:00,
2013-09-10 22:19:00,82.5,76.0,30.06,ENE,67,8.4,15.0,81,0.00,,,0.07,Rainwise IP-100,2013-09-11 02:19:00,
2013-09-10 22:25:00,82.6,76.0,30.07,ENE,67,4.0,18.0,81,0.00,,,0.07,Rainwise IP-100,2013-09-11 02:25:00,
2013-09-10 22:30:00,82.6,76.0,30.06,ENE,67,8.6,15.0,81,0.00,,,0.07,Rainwise IP-100,2013-09-11 02:30:00,
2013-09-10 22:35:00,82.5,76.0,30.06,ENE,67,12.4,14.0,80,0.00,,,0.07,Rainwise IP-100,2013-09-11 02:35:00,
2013-09-10 22:40:00,82.5,76.0,30.06,ENE,67,9.3,13.0,80,0.00,,,0.07,Rainwise IP-100,2013-09-11 02:40:00,
2013-09-10 22:45:00,82.6,76.0,30.06,ENE,67,12.8,17.0,80,0.00,,,0.07,Rainwise IP-100,2013-09-11 02:45:00,
2013-09-10 22:50:00,82.1,75.0,30.06,ENE,67,17.0,20.0,80,0.00,,,0.07,Rainwise IP-100,2013-09-11 02:50:00,
2013-09-10 22:55:00,81.3,74.0,30.06,East,90,7.5,20.0,79,0.00,,,0.07,Rainwise IP-100,2013-09-11 02:55:00,
2013-09-10 23:01:00,80.9,74.0,30.06,ESE,112,7.0,16.0,80,0.00,,,0.07,Rainwise IP-100,2013-09-11 03:01:00,
2013-09-10 23:06:00,81.1,74.0,30.06,ENE,67,6.8,15.0,81,0.00,,,0.07,Rainwise IP-100,2013-09-11 03:06:00,
2013-09-10 23:11:00,81.3,74.0,30.07,ENE,67,8.2,13.0,81,0.00,,,0.07,Rainwise IP-100,2013-09-11 03:11:00,
2013-09-10 23:16:00,81.5,75.0,30.07,ENE,67,6.1,12.0,81,0.00,,,0.07,Rainwise IP-100,2013-09-11 03:16:00,
2013-09-10 23:21:00,81.8,75.0,30.06,ESE,112,7.0,12.0,82,0.00,,,0.07,Rainwise IP-100,2013-09-11 03:21:00,
2013-09-10 23:26:00,81.8,75.0,30.06,NNE,22,2.6,20.0,82,0.00,,,0.07,Rainwise IP-100,2013-09-11 03:26:00,
2013-09-10 23:31:00,81.4,75.0,30.06,East,90,10.0,12.0,82,0.00,,,0.07,Rainwise IP-100,2013-09-11 03:31:00,
2013-09-10 23:36:00,80.8,75.0,30.06,ESE,112,1.9,10.0,83,0.00,,,0.07,Rainwise IP-100,2013-09-11 03:36:00,
2013-09-10 23:42:00,80.3,74.0,30.06,SSE,157,1.4,10.0,83,0.00,,,0.07,Rainwise IP-100,2013-09-11 03:42:00,
2013-09-10 23:47:00,80.2,74.0,30.06,ESE,112,5.1,8.0,82,0.00,,,0.07,Rainwise IP-100,2013-09-11 03:47:00,
2013-09-10 23:52:00,80.3,73.0,30.06,SSE,157,2.1,9.0,80,0.00,,,0.07,Rainwise IP-100,2013-09-11 03:52:00,
2013-09-10 23:57:00,80.7,73.0,30.05,ESE,112,5.6,9.0,79,0.00,,,0.07,Rainwise IP-100,2013-09-11 03:57:00,